[[{"header":{"parameterUnit":"m.s-1","parameterCategory":1,"la1":30.2991,"la2":30.254,"lo1":-89.0895,"lo2":-89.0444,"dy":0.0017,"dx":0.0017,"nx":28,"ny":28,"refTime":"2024-04-10T09:00:00:Z","depth":0,"parameterNumber":2,"parameterNumberName":"U-component_of_WINDS"},"data":[0,0,0,0,0,0,0,0,0,0,0,0,0,0,0,0,0,0,0,0,0,0,0,0,0,0,0,0,0,0,0,0,0,0,0,0,0,0,0,0,0,0,0,0,0,0,0,0,0,0,0,0,0,0,0,0,0,0,4.2533,4.2535,0,4.2709,4.2711,4.2713,4.2671,4.2668,4.2665,4.2661,4.2846,4.2854,4.2862,0,0,0,0,0,0,0,0,0,0,0,0,0,4.2164,4.2171,4.2533,4.2535,4.2537,4.2709,4.2711,4.2713,4.2672,4.2668,4.2664,4.266,4.2844,4.2853,4.2863,0,0,0,0,0,0,0,0,0,0,0,0,0,4.2331,4.2174,4.2532,4.2537,4.2539,4.2708,4.2711,4.2714,4.2673,4.2668,4.2663,4.2658,4.284,4.2852,4.2864,4.3041,0,0,4.2901,4.2906,0,0,0,0,0,0,0,0,4.2322,4.2345,4.2534,4.2537,4.254,4.2663,4.2649,4.2824,4.2674,4.2622,4.2661,4.2655,4.279,4.2806,4.285,4.3049,4.3057,4.2902,4.291,4.2915,4.2918,0,0,0,0,0,0,0,4.231,4.2337,4.2602,4.2537,4.254,4.2532,4.255,4.2682,4.2733,4.2626,4.2624,4.2645,4.279,4.2838,4.2854,4.306,4.2902,4.2913,4.292,4.2925,4.3413,4.3418,0,0,0,0,0,0,4.2296,4.2327,4.2597,4.2608,4.2416,4.2542,4.2562,4.2629,4.2731,4.2741,4.2649,4.2642,4.282,4.284,4.286,4.3074,4.2915,4.2926,4.2933,4.3407,4.3414,4.342,0,0,0,0,0,0,4.2288,4.232,4.259,4.2467,4.2501,4.2554,4.2629,4.2635,4.2683,4.2748,4.2757,4.2689,4.2817,4.2843,4.2996,4.3079,4.2931,4.2942,4.3401,4.3409,4.3417,4.3501,0,0,0,0,0,0,4.2277,4.2317,4.2384,4.2469,4.2507,4.2721,4.2634,4.2642,4.2703,4.2696,4.2788,4.2798,4.2815,4.2978,4.3008,4.3093,4.2952,4.3393,4.3405,4.3415,4.3491,4.3512,4.3529,0,0,0,0,0,4.2264,4.2402,4.2388,4.2421,4.2592,4.2726,4.2748,4.2764,4.271,4.2778,4.282,4.2795,4.3065,4.2994,4.3027,4.3118,4.3388,4.3401,4.3414,4.3483,4.3508,4.3529,0,0,0,0,0,0,4.2327,4.2413,4.2398,4.2567,4.2639,4.2719,4.2805,4.279,4.288,4.287,4.2887,4.2908,4.3063,4.3106,4.3025,4.3294,4.3219,4.3239,4.326,4.3285,4.3303,4.329,4.2962,0,0,0,0,0,4.236,4.2461,4.2531,4.2673,4.271,4.2752,4.2811,4.2816,4.2893,4.2924,4.2977,4.3053,4.3155,4.3222,4.332,4.3497,4.3517,4.3576,4.3595,4.361,4.3627,4.3724,4.3752,4.3463,4.3462,4.3462,0,0,4.2431,4.249,4.2553,4.2687,4.2744,4.2849,4.2778,4.2892,4.2971,4.2942,4.3088,4.313,4.3217,4.3382,4.3458,4.3422,4.3711,4.3626,4.3638,4.3647,4.374,4.3768,4.3792,4.3471,4.347,4.3468,0,0,4.2612,4.2667,4.2791,4.2849,4.2935,4.2962,4.2992,4.3074,4.31,4.3247,4.3228,4.3322,4.3498,4.356,4.3614,4.3819,4.38,4.3851,4.395,4.4044,4.4067,4.4087,4.416,4.4186,4.3868,4.3868,4.3868,0,4.2689,4.2845,4.2857,4.2973,4.3033,4.301,4.3137,4.3193,4.3308,4.3351,4.3309,4.3528,4.3585,4.3764,4.3814,4.3859,4.3895,4.384,4.4062,4.4083,4.4102,4.4172,4.4199,4.3874,4.3873,4.3872,4.3872,0,4.2935,4.3044,4.3134,4.3244,4.3314,4.3435,4.3466,4.3536,4.3536,4.3567,4.3718,4.3785,4.3895,4.3939,4.394,4.4119,4.4094,4.4058,4.3983,4.4135,4.4201,4.4228,4.3882,4.388,4.3878,4.3877,0,0,4.3161,4.3275,4.3308,4.3357,4.3451,4.3536,4.3657,4.3763,4.3823,4.3903,4.4005,4.4153,4.412,4.4182,4.419,4.4273,4.4431,4.4226,4.4228,4.4262,4.4633,4.466,4.469,4.4419,4.4424,4.4428,4.4625,0,4.3351,4.3561,4.3575,4.3766,4.3867,4.3846,4.3951,4.4021,4.4053,4.4145,4.4181,4.4286,4.4234,4.4271,4.4352,4.4395,4.4506,4.4381,4.4514,4.4519,4.4493,4.4725,4.4754,4.4937,4.4651,4.4656,4.4659,0,4.36,4.3686,4.3886,4.3965,4.4008,4.4102,4.4201,4.4288,4.4367,4.4385,4.4454,4.445,4.4575,4.4496,4.4668,4.4582,4.4638,4.4667,4.4675,4.4688,4.4598,4.4744,4.4996,4.5024,4.47,4.4696,4.4694,0,4.3745,4.3911,4.4052,4.4095,4.4191,4.4257,4.43,4.4374,4.4437,4.4524,4.4565,4.4666,4.4722,4.48,4.4825,4.4765,4.4996,4.4919,4.5015,4.5015,4.5065,4.5062,4.5329,4.5101,4.5101,4.51,4.51,0,4.3955,4.4079,4.4118,4.4205,4.4342,4.4358,4.4495,4.4534,4.46,4.4695,4.4684,4.4773,4.48,4.4895,4.4915,4.5055,4.508,4.5098,4.5102,4.51,4.5097,4.5136,4.5124,4.5108,4.5106,4.5105,4.5103,0,4.414,4.4172,4.4324,4.4402,4.4424,4.4522,4.4589,4.4674,4.4704,4.4824,4.4854,4.4902,4.5013,4.5045,4.5179,4.5192,4.5356,4.5348,4.5329,4.5329,4.5424,4.5414,4.5726,4.5767,4.5512,4.5515,4.5517,0,4.4272,4.4366,4.4454,4.4516,4.4561,4.4662,4.4726,4.4746,4.4813,4.4909,4.4982,4.5091,4.5179,4.5358,4.5406,4.5508,4.5503,4.5605,4.5518,4.5512,4.5504,4.5498,4.5508,4.5621,4.5624,4.5626,4.5628,0,4.4504,4.4514,4.4606,4.4704,4.478,4.4858,4.4933,4.4985,4.5016,4.5092,4.5204,4.5273,4.5408,4.5517,4.5621,4.5666,4.5653,4.5655,4.5682,4.568,4.5665,4.5674,4.5373,4.5647,4.5645,4.5644,4.5643,4.5642,4.4666,4.4749,4.4823,4.4926,4.4984,4.5054,4.5137,4.5177,4.5271,4.5382,4.5388,4.551,4.5587,4.5724,4.5775,4.5872,4.5842,4.5882,4.5892,4.5902,4.5909,4.565,4.5891,4.589,4.589,4.5889,4.5889,0,4.4897,4.4943,4.5037,4.5142,4.5223,4.5202,4.5284,4.5353,4.546,4.5532,4.5619,4.5748,4.5853,4.5909,4.6014,4.6081,4.6077,4.6108,4.6103,4.6114,4.593,4.5895,4.6109,4.6109,4.6108,4.6108,4.6108,4.6108,4.5026,4.5164,4.5184,4.5351,4.5397,4.5515,4.5564,4.5629,4.5686,4.5831,4.5917,4.5952,4.6019,4.6128,4.6224,4.6238,4.6277,4.6311,4.6321,4.6149,4.6127,4.6105,4.6073,4.6319,4.632,4.6497,4.6498,4.65]},{"header":{"parameterUnit":"m.s-1","parameterCategory":1,"la1":30.2991,"la2":30.254,"lo1":-89.0895,"lo2":-89.0444,"dy":0.0017,"dx":0.0017,"nx":28,"ny":28,"refTime":"2024-04-10T09:00:00:Z","depth":0,"parameterNumber":3,"parameterNumberName":"V-component_of_WINDS"},"data":[0,0,0,0,0,0,0,0,0,0,0,0,0,0,0,0,0,0,0,0,0,0,0,0,0,0,0,0,0,0,0,0,0,0,0,0,0,0,0,0,0,0,0,0,0,0,0,0,0,0,0,0,0,0,0,0,0,0,-1.4597,-1.4597,0,-1.4598,-1.4598,-1.4598,-1.4595,-1.4595,-1.4595,-1.4595,-1.4596,-1.4596,-1.4596,0,0,0,0,0,0,0,0,0,0,0,0,0,-1.4593,-1.4593,-1.4597,-1.4597,-1.4597,-1.4598,-1.4598,-1.4598,-1.4595,-1.4595,-1.4595,-1.4595,-1.4596,-1.4596,-1.4596,0,0,0,0,0,0,0,0,0,0,0,0,0,-1.4594,-1.4593,-1.4597,-1.4596,-1.4596,-1.4598,-1.4598,-1.4598,-1.4595,-1.4595,-1.4595,-1.4595,-1.4596,-1.4596,-1.4596,-1.4599,0,0,-1.4596,-1.4596,0,0,0,0,0,0,0,0,-1.4594,-1.4594,-1.4596,-1.4596,-1.4596,-1.4596,-1.4597,-1.4598,-1.4595,-1.4595,-1.4595,-1.4595,-1.4596,-1.4596,-1.4597,-1.4599,-1.4599,-1.4596,-1.4596,-1.4596,-1.4597,0,0,0,0,0,0,0,-1.4594,-1.4594,-1.4597,-1.4596,-1.4596,-1.4595,-1.4595,-1.4597,-1.4596,-1.4595,-1.4595,-1.4595,-1.4596,-1.4596,-1.4597,-1.4599,-1.4596,-1.4596,-1.4597,-1.4597,-1.4604,-1.4604,0,0,0,0,0,0,-1.4594,-1.4594,-1.4597,-1.4597,-1.4595,-1.4595,-1.4595,-1.4596,-1.4596,-1.4596,-1.4596,-1.4595,-1.4596,-1.4596,-1.4597,-1.46,-1.4596,-1.4597,-1.4597,-1.4604,-1.4604,-1.4605,0,0,0,0,0,0,-1.4594,-1.4594,-1.4597,-1.4596,-1.4596,-1.4596,-1.4597,-1.4596,-1.4597,-1.4596,-1.4596,-1.4596,-1.4596,-1.4596,-1.4598,-1.46,-1.4597,-1.4597,-1.4604,-1.4604,-1.4604,-1.4607,0,0,0,0,0,0,-1.4594,-1.4594,-1.4596,-1.4596,-1.4596,-1.4599,-1.4597,-1.4597,-1.4597,-1.4597,-1.4597,-1.4597,-1.4596,-1.4598,-1.4599,-1.46,-1.4597,-1.4604,-1.4604,-1.4604,-1.4607,-1.4608,-1.4608,0,0,0,0,0,-1.4594,-1.4597,-1.4596,-1.4596,-1.4598,-1.46,-1.46,-1.4599,-1.4597,-1.4599,-1.4598,-1.4597,-1.46,-1.4599,-1.4599,-1.4601,-1.4604,-1.4604,-1.4604,-1.4607,-1.4608,-1.4608,0,0,0,0,0,0,-1.4597,-1.4597,-1.4596,-1.4599,-1.4599,-1.4599,-1.4601,-1.46,-1.46,-1.46,-1.4599,-1.4599,-1.4601,-1.4601,-1.46,-1.4604,-1.4602,-1.4602,-1.4603,-1.4604,-1.4605,-1.4604,-1.4597,0,0,0,0,0,-1.4598,-1.4599,-1.4599,-1.4602,-1.4602,-1.4601,-1.4602,-1.4601,-1.4602,-1.4602,-1.4602,-1.4602,-1.4603,-1.4603,-1.4604,-1.4607,-1.4607,-1.4609,-1.4609,-1.4609,-1.461,-1.4611,-1.4611,-1.4605,-1.4605,-1.4605,0,0,-1.46,-1.46,-1.4601,-1.4602,-1.4603,-1.4604,-1.4601,-1.4603,-1.4604,-1.4602,-1.4604,-1.4604,-1.4604,-1.4606,-1.4607,-1.4606,-1.4611,-1.461,-1.461,-1.461,-1.4611,-1.4612,-1.4612,-1.4606,-1.4606,-1.4606,0,0,-1.4604,-1.4605,-1.4607,-1.4607,-1.4607,-1.4607,-1.4607,-1.4607,-1.4607,-1.4609,-1.4608,-1.4609,-1.461,-1.4611,-1.4611,-1.4615,-1.4614,-1.4616,-1.4618,-1.4619,-1.462,-1.462,-1.4621,-1.4622,-1.4616,-1.4616,-1.4616,0,-1.4607,-1.4609,-1.4608,-1.461,-1.461,-1.4608,-1.461,-1.461,-1.4611,-1.4611,-1.461,-1.4612,-1.4612,-1.4615,-1.4616,-1.4616,-1.4616,-1.4615,-1.462,-1.462,-1.462,-1.4621,-1.4622,-1.4616,-1.4616,-1.4616,-1.4616,0,-1.4612,-1.4613,-1.4615,-1.4615,-1.4616,-1.4618,-1.4617,-1.4618,-1.4617,-1.4616,-1.4618,-1.4618,-1.4619,-1.462,-1.4619,-1.4622,-1.4621,-1.462,-1.4618,-1.4621,-1.4622,-1.4623,-1.4616,-1.4616,-1.4616,-1.4616,0,0,-1.4618,-1.4618,-1.4618,-1.4618,-1.4619,-1.462,-1.4621,-1.4622,-1.4623,-1.4623,-1.4624,-1.4626,-1.4624,-1.4625,-1.4624,-1.4625,-1.4628,-1.4624,-1.4624,-1.4624,-1.4631,-1.4632,-1.4632,-1.4627,-1.4627,-1.4627,-1.4631,0,-1.4622,-1.4625,-1.4624,-1.4626,-1.4627,-1.4626,-1.4627,-1.4627,-1.4627,-1.4628,-1.4627,-1.4628,-1.4627,-1.4627,-1.4628,-1.4627,-1.4629,-1.4627,-1.4628,-1.4628,-1.4628,-1.4633,-1.4633,-1.4637,-1.4631,-1.4631,-1.4631,0,-1.4627,-1.4627,-1.463,-1.463,-1.463,-1.4632,-1.4632,-1.4633,-1.4633,-1.4633,-1.4633,-1.4632,-1.4633,-1.4631,-1.4633,-1.4632,-1.4632,-1.4632,-1.4632,-1.4632,-1.463,-1.4632,-1.4637,-1.4638,-1.4632,-1.4632,-1.4632,0,-1.4631,-1.4632,-1.4634,-1.4634,-1.4634,-1.4635,-1.4635,-1.4635,-1.4635,-1.4636,-1.4636,-1.4636,-1.4637,-1.4637,-1.4636,-1.4635,-1.4638,-1.4636,-1.4637,-1.4637,-1.4638,-1.4638,-1.4643,-1.4639,-1.4639,-1.4639,-1.4639,0,-1.4635,-1.4637,-1.4636,-1.4637,-1.4638,-1.4637,-1.4639,-1.4639,-1.4639,-1.464,-1.4638,-1.4639,-1.4638,-1.4639,-1.4638,-1.4639,-1.464,-1.4639,-1.4639,-1.4639,-1.4639,-1.4639,-1.4639,-1.4639,-1.4639,-1.4639,-1.4639,0,-1.4639,-1.4639,-1.464,-1.464,-1.464,-1.4641,-1.4641,-1.4642,-1.4641,-1.4643,-1.4643,-1.4642,-1.4643,-1.4642,-1.4643,-1.4642,-1.4644,-1.4643,-1.4644,-1.4643,-1.4645,-1.4645,-1.465,-1.465,-1.4646,-1.4646,-1.4646,0,-1.4642,-1.4643,-1.4643,-1.4643,-1.4643,-1.4644,-1.4645,-1.4644,-1.4644,-1.4644,-1.4645,-1.4646,-1.4646,-1.4647,-1.4647,-1.4647,-1.4647,-1.4648,-1.4647,-1.4647,-1.4646,-1.4646,-1.4646,-1.4649,-1.4649,-1.4649,-1.4649,0,-1.4647,-1.4646,-1.4647,-1.4647,-1.4648,-1.4648,-1.4648,-1.4649,-1.4648,-1.4648,-1.4649,-1.4649,-1.465,-1.465,-1.4651,-1.465,-1.4649,-1.4649,-1.465,-1.465,-1.465,-1.4649,-1.4644,-1.4649,-1.4649,-1.4649,-1.4649,-1.4649,-1.465,-1.4651,-1.4651,-1.4651,-1.4651,-1.4652,-1.4652,-1.4652,-1.4652,-1.4653,-1.4652,-1.4653,-1.4653,-1.4653,-1.4653,-1.4654,-1.4653,-1.4653,-1.4654,-1.4654,-1.4654,-1.465,-1.4654,-1.4654,-1.4654,-1.4654,-1.4654,0,-1.4654,-1.4654,-1.4655,-1.4655,-1.4655,-1.4654,-1.4655,-1.4655,-1.4656,-1.4656,-1.4656,-1.4657,-1.4657,-1.4657,-1.4657,-1.4658,-1.4657,-1.4658,-1.4657,-1.4657,-1.4655,-1.4654,-1.4658,-1.4658,-1.4658,-1.4658,-1.4658,-1.4658,-1.4656,-1.4658,-1.4657,-1.4659,-1.4658,-1.4659,-1.4659,-1.4659,-1.4659,-1.466,-1.466,-1.466,-1.466,-1.466,-1.4661,-1.466,-1.4661,-1.4661,-1.4661,-1.4658,-1.4658,-1.4657,-1.4657,-1.4661,-1.4661,-1.4664,-1.4664,-1.4664]}]]